Regional Weather Roundup
Issued by NWS

Home | Current Version | Previous Version | Text Only | Print | Product List | Glossary On
Versions: 1 2 3 4 5 6 7 8 9 10 11 12 13 14 15 16 17 18 19 20 21 22 23 24 25 26 27 28 29 30 31 32 33 34 35 36 37 38 39 40 41 42 43 44 45 46 47 48 49 50
000
ASUS44 KLUB 232310
RWRTX
WEST TEXAS WEATHER ROUNDUP
NATIONAL WEATHER SERVICE LUBBOCK TX
600 PM CDT SUN JUL 23 2017

NOTE: "FAIR" INDICATES FEW OR NO CLOUDS BELOW 12,000 FEET WITH NO
SIGNIFICANT WEATHER AND/OR OBSTRUCTIONS TO VISIBILITY.

TXZ004-006>008-010-012-014-016-OKZ002-240000-
TEXAS PANHANDLE/OKLAHOMA PANHANDLE

CITY           SKY/WX    TMP DP  RH WIND       PRES   REMARKS
AMARILLO       FAIR      92  57  30 E9        30.00F
BORGER         PTSUNNY   93  58  30 E8        29.96F
CANADIAN       FAIR      91  67  45 N8        29.92R
DALHART        MOSUNNY   92  56  29 E10       30.05F
DUMAS          FAIR      91  51  25 NE7       30.02S
GUYMON         FAIR      94  59  31 SE7       29.98F
HEREFORD       FAIR      91  57  31 SE8       30.02S
PAMPA          PTSUNNY   92  61  34 SE22      29.99R
PERRYTON       FAIR      89  60  37 S9        29.97S
$$

TXZ026-029-035-045-048-240000-
SOUTHERN PANHANDLE/SOUTH PLAINS/ROLLING PLAINS

CITY           SKY/WX    TMP DP  RH WIND       PRES   REMARKS
CHILDRESS      TSTM      89  67  47 S15G22    29.91R
SEMINOLE       FAIR      83  61  46 NE6       30.01R
LUBBOCK        LGT RAIN  85  64  49 CALM      29.99S
PLAINVIEW      PTSUNNY   83  61  46 SE21G33   29.99R
SNYDER         FAIR      82  66  59 NW7       29.94S
$$

TXZ052-054-060>062-072-078-127-140-154-169-240000-
PERMIAN BASIN/CONCHO VALLEY/BIG COUNTRY/EDWARDS PLATEAU

CITY           SKY/WX    TMP DP  RH WIND       PRES   REMARKS
ABILENE        FAIR      89  61  38 S20       29.88S
BIG SPRING     FAIR      93  56  28 CALM      29.96S
BROWNWOOD      FAIR      84  64  51 SW13      29.92R
JUNCTION       FAIR      77  70  79 N6        29.97R
MIDLAND        FAIR      88  61  40 SE7       29.96F
ODESSA         FAIR      89  60  37 S8        29.98F
SAN ANGELO     FAIR      87  62  43 S14       29.92R
SONORA         PTSUNNY   77  68  73 E18       30.00R THUNDER
SWEETWATER     FAIR      93  61  34 W9        29.94S
WINK           FAIR      90  62  39 E9        29.95F
$$

TXZ055-058-074-075-080-082-240000-
FAR WEST/SOUTHWEST MOUNTAINS/TRANS PECOS

CITY           SKY/WX    TMP DP  RH WIND       PRES   REMARKS
ALPINE         CLOUDY    69  65  85 W7        30.16S
DRYDEN           N/A     88  61  40 SW8G20    29.92R
EL PASO        PTSUNNY   83  68  60 CALM      29.99R
FORT STOCKTON  FAIR      87  60  40 S15       29.99F
GUADALUPE PASS MOSUNNY   77  60  55 E14       30.14S
MARFA          LGT RAIN  67  63  87 N9        30.14R
PECOS          FAIR      92  61  34 E12       29.95S
PRESIDIO       FAIR      87  61  41 NE8       29.98F
$$

TXZ014-016-019-021>030-083-240000
TEXAS TECH WEST TEXAS MESONET/TEXAS PANHANDLE/NORTHERN SOUTH PLAINS

CITY           SKY/WX    TMP DP  RH WIND       PRES   REMARKS
ABERNATHY 5ENE   N/A     79  67  66 E13       30.02R
AMARILLO 9NNE    N/A     89  59  36 SE2       29.98F
AMARILLO 7SSE    N/A     89  58  34 E10       30.01S
AMHERST 1NE      N/A     81  66  61 S2        30.01F
BOOTLEG 11WNW    N/A     83  58  43 W7        30.09S
CANADIAN 6E      N/A     93  64  37 E12       29.91S HX  95
CAPROCK CYN SP   N/A     92  61  34 S21       29.94S
CHILDRESS 2NNE   N/A     92  60  34 S14       29.86S
CLARENDON 2WSW   N/A     93  57  29 SE8       29.94F
CLAUDE 12SW      N/A     91  57  31 SE6       29.99S
DIMMITT 2NE      N/A     89  57  33 NW2       30.01S
FLOYDADA 2NNE    N/A     73  64  72 W12       29.99F
FRIONA 2NE       N/A     87  56  35 E7        30.04S
GOODLETT 3W      N/A     97  55  25 S8        29.83S HX  95
HART 3N          N/A     88  59  36 W2        30.01S
HEREFORD 2NW     N/A     89  53  29 NE8       30.02S
MCLEAN 1E        N/A     86  59  39 NE17      29.95S
MEMPHIS 1NE      N/A     96  58  28 N6        29.88S HX  95
MULESHOE 2SSW    N/A     80  64  59 SW1       30.03S
OLTON 6S         N/A     88  60  38 S15       30.00S
PALO DURO SP     N/A     92  57  31 SE9       30.00S
PAMPA 2E         N/A     76  68  77 E12       30.00R
PLAINVIEW 1S     N/A     83  63  51 SE20      29.99R
SILVERTON 7ESE   N/A     89  55  30 SW3       29.97F
TULIA 2ENE       N/A     88  60  38 SE3       29.99S
TURKEY 2WSW      N/A     94  62  34 S10G21    29.91S
UMBARGER 3NNE    N/A     88  60  38 E7        30.02S
$$

TXZ033>036-039>041-045>048-240000
TEXAS TECH WEST TEXAS MESONET/SOUTH PLAINS

CITY           SKY/WX    TMP DP  RH WIND       PRES   REMARKS
AIKEN 3WSW       N/A     84  64  50 S20       30.02R
ANDREWS 2NE      N/A     88  56  33 NW1       29.99R
ANTON 6SSW       N/A     84  65  51 W1        30.00S
BROWNFIELD 2S    N/A     91  54  28 N3        29.99S
DENVR CTY 7WNW   N/A     89  54  29 SE5       30.00S
GAIL 2ESE        N/A     92  57  30 CALM      29.93F
LAMESA 2SE       N/A     92  58  31 S6        29.96F
LEVELLAND 4S     N/A     89  56  32 SW3       30.00F
LUBBOCK 3WNW     N/A     81  67  61 NE5       29.99F
MORTON 1ENE      N/A     85  58  39 W6        30.02F
ODONNELL 1N      N/A     76  64  66 NW21      29.98R
PLAINS 3N        N/A     87  57  36 SE13      30.02R
RALLS 1SE        N/A     81  60  48 CALM      30.00S
REESE CENTER     N/A     89  57  34 NE7       29.99F
SEAGRAVES 1SW    N/A     89  56  32 S9        29.99S
SEMINOLE 2NNE    N/A     80  64  57 E5        30.00S
SLATON 2NE       N/A     85  63  47 E10       29.99S
SNYDER 3E        N/A     86  63  46 NW6       29.92F
SUNDOWN 8SW      N/A     85  59  41 E3        30.01S
TAHOKA 3NNE      N/A     79  63  57 SW2       29.99R
WOLFFORTH 6SSW   N/A     91  58  33 N9        29.99S
$$

TXZ031-032-036>038-042>044-240000-
TEXAS TECH WEST TEXAS MESONET/ROLLING PLAINS

CITY           SKY/WX    TMP DP  RH WIND       PRES   REMARKS
FLUVANNA 3WNW    N/A     85  64  50 SE3       29.95F
GRAHAM 5SSW      N/A     87  62  41 W3        29.97S
GUTHRIE 10WSW    N/A     90  61  37 N5        29.89S
HASKELL 1NW      N/A     96  61  31 W5G28     29.84R HX  96
JAYTON 1SSE      N/A     88  64  44 NW6       29.91R
KNOX CITY 3NW    N/A     87  67  51 S7        29.85F
LK A HENRY 1NW   N/A     88  59  36 CALM      29.92F
NORTHFIELD 1S    N/A     95  62  33 SW5       29.88S HX  95
ODELL 4ENE       N/A    101  60  26 SE7       29.81F HX 101
PADUCAH 10SW     N/A     94  61  33 W12       29.88R
POST 1NE         N/A     92  60  33 NE1       29.94F
RRING SPRGS 3N   N/A     83  65  54 W10       29.94S
SEYMOUR 3NW      N/A     95  60  30 SE8       29.81F HX  95
SPUR 1W          N/A     81  64  56 SW5       29.91S
WEINERT 2NNE     N/A     94  63  35 E12       29.83S HX  95
WHITE RVR 6NE    N/A     81  62  51 SW2       29.95F
$$

TXZ052-054-060>062-072-078-127-140-154-169-240000-
TEXAS TECH WEST TEXAS MESONET/PERMIAN BASIN/
CONCHO VALLEY/BIG COUNTRY/EDWARDS PLATEAU

CITY           SKY/WX    TMP DP  RH WIND       PRES   REMARKS
COYANOSA 2N      N/A     89  64  43 S13       29.96R
JUNCTION 1SSW    N/A     75  69  80 NW1       29.98R
MERTZON 3NNE     N/A     84  72  67 SE10      29.96R
SAN ANGELO 7NW   N/A     92  59  32 S16       29.92R
STRLNG CT 4WSW   N/A     92  59  33 S5        29.94S
ST LAWRNCE 5SW   N/A     90  64  41 S3        29.96S
SWEETWATR 11SW   N/A     93  66  40 W7        29.94S HX  96
WALL 1E          N/A     89  64  43 S9        29.93S
$$

TXZ055-058-074-075-080-082-240000-
TEXAS TECH WEST TEXAS MESONET/FAR WEST/SOUTHWEST MOUNTAINS/TRANS PECOS

CITY           SKY/WX    TMP DP  RH WIND       PRES   REMARKS
GUADLPE MTN NP   N/A     77  58  51 SE3       30.16R
$$




USA.gov is the U.S. government's official web portal to all federal, state and local government web resources and services.